EW4557 Weather Reports


Display with metric or nautical units.
time (UTC)temp
F
wind
direction
speed
MPH
gust
MPH
rain 1hr
in
rain 24hr
in
rain mn
in
humidity
%
barometer
mb
20260905122637 70 0.0 0.0 0.00 0.12 0.00 75 1016.4
20260905121516 70 0.0 0.0 0.00 0.12 0.00 76 1016.2
20260905120557 69 0.0 0.0 0.00 0.12 0.00 76 1016.1
20260905115516 69 0.0 0.0 0.00 0.12 0.00 77 1015.9
20260905114516 69 0 0.0 3.0 0.00 0.12 0.00 78 1016.0
20260905113517 69 0.0 0.0 0.00 0.12 0.00 79 1016.0
20260905112516 69 0.0 0.0 0.00 0.12 0.00 79 1015.9
20260905110556 69 0.0 0.0 0.00 0.12 0.00 79 1015.8
20260905105516 69 0.0 0.0 0.00 0.12 0.00 79 1015.9
20260905104556 69 0.0 0.0 0.00 0.12 0.00 79 1015.8
20260905103516 69 0.0 0.0 0.00 0.12 0.00 79 1016.5
20260905102556 69 0.0 0.0 0.00 0.12 0.00 78 1017.7
20260905101636 69 0.0 0.0 0.00 0.12 0.00 76 1017.9
20260905100516 70 0.0 0.0 0.00 0.12 0.00 76 1018.0
20260905095516 70 0.0 0.0 0.00 0.12 0.00 77 1018.0
20260905093556 70 0 0.0 2.0 0.00 0.12 0.00 74 1017.9
20260905092516 70 0.0 0.0 0.00 0.12 0.00 76 1018.3
20260905091516 71 0.0 0.0 0.00 0.12 0.00 75 1018.3
20260905090516 71 0.0 0.0 0.00 0.12 0.00 75 1018.6
20260905085556 71 0.0 2.0 0.00 0.12 0.00 75 1018.8
20260905084556 71 0 2.0 4.0 0.00 0.12 0.00 75 1018.7
20260905083516 71 0 0.0 2.0 0.00 0.12 0.00 76 1018.5
20260905082516 71 0 0.0 2.0 0.00 0.12 0.00 75 1018.5
20260905081516 71 0 0.0 2.0 0.00 0.12 0.00 74 1018.7
20260905080556 72 0.0 0.0 0.00 0.12 0.00 74 1018.6
20260905075516 72 0 0.0 1.0 0.00 0.12 0.00 72 1018.3
20260905074636 73 0.0 0.0 0.00 0.12 0.00 73 1018.4
20260905073516 73 0 0.0 1.0 0.00 0.12 0.00 70 1018.5
20260905072516 73 0.0 0.0 0.00 0.12 0.00 69 1018.6
20260905070516 73 0.0 0.0 0.00 0.12 0.00 69 1018.2
20260905065516 73 0.0 2.0 0.00 0.12 0.00 68 1018.2
20260905064556 73 0 1.0 3.0 0.00 0.12 0.00 68 1018.0
20260905063636 73 0.0 0.0 0.00 0.12 0.00 70 1018.0
20260905062516 73 0 0.0 2.0 0.00 0.12 0.00 68 1017.7
20260905061516 73 0 0.0 4.0 0.00 0.12 0.00 70 1017.8
20260905060516 72 0 3.0 6.0 0.00 0.12 0.00 70 1017.5
20260905055515 72 0.0 0.0 0.00 0.12 0.12 74 1017.6
20260905054515 72 0.0 0.0 0.00 0.12 0.12 75 1017.3
20260905053515 72 0 1.0 2.0 0.00 0.12 0.12 75 1017.2
20260905052515 73 0.0 0.0 0.00 0.12 0.12 72 1017.0
20260905051515 73 0 0.0 3.0 0.00 0.12 0.12 72 1017.3
20260905050515 74 0.0 0.0 0.00 0.12 0.12 70 1017.2
20260905045555 74 0.0 0.0 0.00 0.12 0.12 69 1017.1
20260905044635 74 0.0 0.0 0.00 0.12 0.12 66 1017.1
20260905043555 75 0.0 0.0 0.00 0.12 0.12 64 1017.1
20260905041515 77 0.0 0.0 0.00 0.12 0.12 62 1017.2
20260905040635 77 0.0 1.0 0.00 0.12 0.12 59 1016.9
20260905035515 77 0 1.0 4.0 0.00 0.12 0.12 59 1017.0
20260905034555 78 0 1.0 4.0 0.00 0.12 0.12 59 1017.0
20260905033515 79 0.0 0.0 0.00 0.12 0.12 60 1017.1
20260905031637 80 0.0 0.0 0.00 0.12 0.12 54 1016.8
20260905030555 80 0.0 0.0 0.00 0.12 0.12 55 1016.8
20260905025517 81 0.0 2.0 0.00 0.12 0.12 54 1016.8
20260905024516 81 0 0.0 3.0 0.00 0.12 0.12 50 1016.6
20260905023517 81 0 1.0 4.0 0.00 0.12 0.12 48 1016.4
20260905022516 82 0 1.0 3.0 0.00 0.12 0.12 48 1016.3
20260905021516 82 0 2.0 6.0 0.00 0.12 0.12 47 1015.8
20260905015516 83 0 2.0 8.0 0.00 0.12 0.12 47 1015.4
20260905014556 83 0 3.0 9.0 0.00 0.12 0.12 47 1015.3
20260905013516 83 0 3.0 8.0 0.00 0.12 0.12 47 1015.3
20260905012557 83 0 2.0 6.0 0.00 0.12 0.12 47 1014.8
20260905011516 83 0 3.0 9.0 0.00 0.12 0.12 47 1014.2
20260905010516 83 0 3.0 9.0 0.00 0.12 0.12 48 1014.0
20260905005516 82 0 4.0 6.0 0.00 0.12 0.12 55 1013.6
20260905004636 81 0.0 0.0 0.00 0.12 0.12 65 1013.4
20260905003636 82 0.0 0.0 0.00 0.12 0.12 66 1013.5
20260905002516 82 0 0.0 2.0 0.00 0.12 0.12 62 1013.3
20260905001516 81 0 1.0 4.0 0.00 0.12 0.12 60 1013.0
20260905000516 82 0 1.0 4.0 0.00 0.12 0.12 61 1013.0
20260904234636 82 0 0.0 4.0 0.00 0.12 0.12 59 1012.9
20260904233556 82 0.0 3.0 0.01 0.12 0.12 51 1012.7
20260904232639 81 0 3.0 13.0 0.09 0.12 0.12 52 1012.7
20260904231516 79 0 4.0 11.0 0.12 0.12 0.12 58 1011.6
20260904230556 79 0 1.0 4.0 0.12 0.12 0.12 72 1012.0
20260904225516 80 0 1.0 3.0 0.12 0.12 0.12 61 1011.9
20260904224556 80 0 11.0 23.0 0.12 0.12 0.12 54 1012.3
20260904223516 83 0 4.0 23.0 0.11 0.11 0.11 54 1012.8
20260904222516 94 0 5.0 13.0 0.03 0.03 0.03 32 1014.1
20260904220516 97 0 3.0 10.0 0.00 0.00 0.00 26 1014.2
20260904215636 96 0 3.0 10.0 0.00 0.00 0.00 27 1014.2
20260904214516 96 0 4.0 13.0 0.00 0.00 0.00 26 1014.3
20260904213556 96 0 7.0 14.0 0.00 0.00 0.00 26 1014.5
20260904212516 98 0 5.0 11.0 0.00 0.00 0.00 25 1014.9
20260904211556 97 0 3.0 11.0 0.00 0.00 0.00 26 1015.2
20260904210516 99 0 3.0 8.0 0.00 0.00 0.00 24 1015.7
20260904205516 99 0 4.0 14.0 0.00 0.00 0.00 25 1015.8
20260904203516 98 0 8.0 16.0 0.00 0.00 0.00 25 1016.3
20260904202516 98 0 6.0 13.0 0.00 0.00 0.00 25 1016.5
20260904200516 97 0 4.0 9.0 0.00 0.00 0.00 27 1016.4
20260904195636 97 0 5.0 11.0 0.00 0.00 0.00 27 1016.6
20260904194556 95 0 6.0 11.0 0.00 0.00 0.00 27 1016.5
20260904193516 96 0 4.0 10.0 0.00 0.00 0.00 27 1016.8
20260904192515 95 0 4.0 9.0 0.00 0.00 0.00 28 1016.9
20260904191556 96 0 7.0 15.0 0.00 0.00 0.00 27 1017.1
20260904190636 96 0 6.0 16.0 0.00 0.00 0.00 27 1017.1
20260904185515 96 0 6.0 14.0 0.00 0.00 0.00 27 1017.3
20260904184516 96 0 4.0 13.0 0.00 0.00 0.00 27 1017.5
20260904183636 95 0 6.0 16.0 0.00 0.00 0.00 28 1017.2
20260904182515 93 0 5.0 11.0 0.00 0.00 0.00 29 1017.0
20260904181515 93 0 5.0 11.0 0.00 0.00 0.00 29 1016.9
20260904180515 94 0 5.0 13.0 0.00 0.00 0.00 29 1017.2
20260904174515 93 0 5.0 11.0 0.00 0.00 0.00 30 1017.4
20260904173635 92 0 4.0 12.0 0.00 0.00 0.00 31 1017.2
20260904172555 92 0 4.0 12.0 0.00 0.00 0.00 31 1017.5
20260904171515 92 0 7.0 14.0 0.00 0.00 0.00 31 1017.7
20260904170515 92 0 4.0 9.0 0.00 0.00 0.00 32 1017.8
20260904165515 92 0 6.0 12.0 0.00 0.00 0.00 32 1017.8
20260904164555 91 0 3.0 11.0 0.00 0.00 0.00 32 1017.8
20260904163515 90 0 2.0 8.0 0.00 0.00 0.00 32 1017.9
20260904162515 90 0 4.0 9.0 0.00 0.00 0.00 33 1018.0
20260904161515 89 0 3.0 6.0 0.00 0.00 0.00 34 1018.0
20260904160515 88 0 3.0 9.0 0.00 0.00 0.00 35 1018.0
20260904155635 87 0 3.0 8.0 0.00 0.00 0.00 37 1018.0
20260904154515 86 0 4.0 8.0 0.00 0.00 0.00 38 1018.1
20260904153515 85 0 4.0 10.0 0.00 0.00 0.00 39 1017.7
20260904152635 85 0 5.0 9.0 0.00 0.00 0.00 39 1018.0
20260904151515 85 0 4.0 8.0 0.00 0.00 0.00 39 1018.0
20260904145555 83 0 4.0 9.0 0.00 0.00 0.00 40 1017.8
20260904144515 84 0 5.0 10.0 0.00 0.00 0.00 40 1017.9
20260904143515 83 0 2.0 10.0 0.00 0.00 0.00 41 1017.8
20260904142515 82 0 4.0 9.0 0.00 0.00 0.00 42 1017.7
20260904141515 81 0 2.0 6.0 0.00 0.00 0.00 43 1017.6
20260904135555 78 0 1.0 4.0 0.00 0.00 0.00 47 1017.1
20260904134555 78 0 2.0 4.0 0.00 0.00 0.00 48 1017.3
20260904133515 77 0 1.0 4.0 0.00 0.00 0.00 49 1017.3
20260904132635 76 0 2.0 5.0 0.00 0.00 0.00 51 1017.2
20260904130515 69 0.0 0.0 0.00 0.00 0.00 61 1016.6
20260904125515 68 0.0 0.0 0.00 0.00 0.00 61 1016.5
20260904124515 68 0.0 2.0 0.00 0.00 0.00 60 1016.2
20260904123515 68 0 0.0 2.0 0.00 0.00 0.00 59 1016.3